Red Bluff, CA

11:48 PM PDT on October 17, 2019 (GMT -0700)
Red Bluff Municipal

Weather History for KRBL - September, 2019

Change the Weather History Date:

Sunday, September 15, 2019

  Actual Average Record
Temperature  
Mean Temperature 72 °F -  
Max Temperature 88 °F 89 °F 106 °F (1934)
Min Temperature 55 °F 57 °F 49 °F (1959)
Cooling Degree Days 6    
Growing Degree Days 22 (Base 50)    
Moisture  
Dew Point 48 °F    
Average Humidity 39    
Maximum Humidity 67    
Minimum Humidity 19    
Precipitation  
Precipitation 0.00 in - - ()
Sea Level Pressure  
Sea Level Pressure 29.75 in    
Wind  
Wind Speed 6 mph (SSE)    
Max Wind Speed 20 mph    
Max Gust Speed 22 mph    
Visibility 10 miles    
Events      
Averages and records for this station are not official NWS values.
T = Trace of Precipitation, MM = Missing Value Source: NWS Daily Summary

Daily Weather History Graph

Daily Weather History Graph

Search for Another Location

Airport or City:

Astronomy

Sep. 15, 2019 Rise Set
Actual Time 6:49 AM PDT 7:17 PM PDT
Civil Twilight 6:22 AM PDT 7:45 PM PDT
Nautical Twilight 5:50 AM PDT 8:17 PM PDT
Astronomical Twilight 5:17 AM PDT 8:49 PM PDT
Moon 8:28 PM PDT (9/15) 8:05 AM PDT (9/15)
Length of Visible Light 13h 22m
Length of Day
12h 28m
Full, 98% of the Moon is Illuminated
Sep 15
Full
Sep 21
Last Quarter
Sep 28
New
Oct 5
First Quarter
Oct 13
Full

Hourly Weather History & Observations

Time (PDT) Temp. Dew Point Humidity Pressure Visibility Wind Dir Wind Speed Gust Speed Precip Events Conditions
12:54 AM 66.0 °F 50.0 °F 56% 29.80 in 10.0 mi Calm Calm - N/A   Clear
1:54 AM 64.9 °F 50.0 °F 58% 29.80 in 10.0 mi SSW 3.5 mph - N/A   Clear
2:54 AM 68.0 °F 48.0 °F 49% 29.79 in 10.0 mi Calm Calm - N/A   Clear
3:54 AM 68.0 °F 46.9 °F 47% 29.78 in 10.0 mi East 6.9 mph - N/A   Clear
4:54 AM 66.0 °F 46.0 °F 48% 29.78 in 10.0 mi East 4.6 mph - N/A   Clear
5:54 AM 63.0 °F 46.0 °F 54% 29.79 in 10.0 mi Calm Calm - N/A   Clear
6:54 AM 55.9 °F 45.0 °F 67% 29.80 in 10.0 mi NNW 3.5 mph - N/A   Clear
7:54 AM 63.0 °F 46.9 °F 56% 29.81 in 10.0 mi Calm Calm - N/A   Clear
8:54 AM 68.0 °F 46.0 °F 45% 29.82 in 10.0 mi SE 10.4 mph - N/A   Clear
9:54 AM 71.1 °F 46.0 °F 41% 29.81 in 10.0 mi ESE 6.9 mph - N/A   Clear
10:54 AM 75.0 °F 46.0 °F 36% 29.81 in 10.0 mi Variable 5.8 mph - N/A   Clear
11:54 AM 80.1 °F 42.1 °F 26% 29.79 in 10.0 mi Variable 5.8 mph - N/A   Clear
12:54 PM 84.0 °F 42.1 °F 23% 29.76 in 10.0 mi SSE 10.4 mph - N/A   Clear
1:54 PM 84.9 °F 43.0 °F 23% 29.74 in 10.0 mi SSE 10.4 mph 18.4 mph N/A   Clear
2:54 PM 86.0 °F 46.9 °F 26% 29.70 in 10.0 mi SSE 11.5 mph 21.9 mph N/A   Clear
3:54 PM 87.1 °F 46.0 °F 24% 29.69 in 10.0 mi South 16.1 mph - N/A   Clear
4:54 PM 86.0 °F 50.0 °F 29% 29.68 in 10.0 mi South 11.5 mph - N/A   Clear
5:54 PM 86.0 °F 51.1 °F 30% 29.66 in 10.0 mi SSE 13.8 mph - N/A   Clear
6:54 PM 82.9 °F 52.0 °F 34% 29.67 in 10.0 mi SSE 12.7 mph - N/A   Clear
7:54 PM 81.0 °F 48.0 °F 31% 29.68 in 10.0 mi SSE 17.3 mph - N/A   Clear
8:54 PM 78.1 °F 48.9 °F 36% 29.70 in 10.0 mi SSW 9.2 mph - N/A   Clear
9:54 PM 75.0 °F 52.0 °F 44% 29.72 in 10.0 mi SE 10.4 mph - N/A   Clear
10:54 PM 73.0 °F 52.0 °F 48% 29.72 in 10.0 mi SSE 15.0 mph 20.7 mph N/A   Clear
11:54 PM 72.0 °F 53.1 °F 51% 29.70 in 10.0 mi SSE 19.6 mph - N/A   Clear